Location: Hamilton
(43.2500°N, 79.8330°W)
Time: 17:21:18
(UTC-04:00)

Amateur Radio Satellites - All Passes

Search period start: 02 September 2014 16:51
Search period end: 03 September 2014 16:51
Location: Hamilton, 43.2500°N, 79.8330°W

Satellite Date Start Highest point End Downlink Frequencies (MHz)
Time Altitude Azimuth
Hamsat 02 Sep 17:17:59 17:20:51 18° 64° (ENE) 17:23:45 145.90 MHz
PCSat 02 Sep 17:18:19 17:23:43 81° 301° (WNW) 17:29:11 145.825 MHz
ISS 02 Sep 17:54:29 17:55:47 12° 230° (SW) 17:57:05 145.800 FM
OPAL 02 Sep 18:04:06 18:09:22 80° 106° (ESE) 18:14:34 ?
Uosat F 02 Sep 18:14:03 18:16:51 15° 270° (W) 18:19:40 435.120 FM
JAS-2 02 Sep 18:25:48 18:31:49 85° 75° (ENE) 18:37:15 435.800 - 435.900 CW/SSB, 435.910 FM
AO-7 02 Sep 18:27:49 18:33:53 22° 269° (W) 18:39:59 29.400 - 29.500 MHz
Sapphire 02 Sep 18:33:51 18:38:22 26° 315° (NW) 18:42:54 437.095 MHz 1200 baud AX-25 AFSK
RS-15 02 Sep 18:37:14 18:46:56 37° 253° (WSW) 18:57:01 29.354 - 29.394 USB, Beacon 29.352 USB
Hamsat 02 Sep 18:52:16 18:56:27 47° 261° (W) 19:00:41 145.90 MHz
PCSat 02 Sep 19:04:35 19:08:01 17° 322° (NW) 19:11:29 145.825 MHz
SO-67 02 Sep 19:11:17 19:14:28 36° 72° (ENE) 19:17:41 435.3500 MHz FM
OPAL 02 Sep 19:44:33 19:47:34 16° 304° (WNW) 19:50:35 ?
STRAND 1 02 Sep 19:53:03 19:58:02 50° 100° (E) 20:02:58 ?
JAS-2 02 Sep 20:14:56 20:17:27 13° 270° (W) 20:19:54 435.800 - 435.900 CW/SSB, 435.910 FM
HO-68 02 Sep 20:31:51 20:38:23 41° 63° (ENE) 20:44:57 435.675 MHz FM
SO-67 02 Sep 20:45:55 20:47:41 13° 269° (W) 20:49:27 435.3500 MHz FM
UKube-1 02 Sep 20:54:17 20:57:30 21° 65° (ENE) 21:00:44 145.840 MHz, 145.915 MHz
Oscar 11 02 Sep 20:57:58 21:00:19 15° 62° (ENE) 21:02:41 145.825 FM, Beacon 2401.500 USB
MaSat-1 02 Sep 21:13:19 21:16:10 16° 44° (NE) 21:18:49 437.345 MHz
Saudisat 1A 02 Sep 21:19:59 21:22:05 13° 109° (ESE) 21:24:12 436.775 MHz
FUNcube-1 02 Sep 21:33:00 21:34:56 13° 61° (ENE) 21:36:53 145.950 - 145.970 MHz USB
STRAND 1 02 Sep 21:33:01 21:36:53 22° 297° (WNW) 21:40:44 ?
KITSAT 1 02 Sep 21:52:20 21:56:40 16° 100° (E) 22:00:59 435.175 FM
HO-68 02 Sep 22:19:23 22:26:03 42° 262° (W) 22:32:46 435.675 MHz FM
UKube-1 02 Sep 22:29:23 22:33:27 39° 261° (W) 22:37:32 145.840 MHz, 145.915 MHz
Oscar 11 02 Sep 22:31:44 22:36:01 60° 259° (W) 22:40:21 145.825 FM, Beacon 2401.500 USB
MaSat-1 02 Sep 22:49:18 22:53:49 70° 246° (WSW) 22:57:40 437.345 MHz
Saudisat 1A 02 Sep 22:56:42 23:01:06 70° 306° (NW) 23:05:32 436.775 MHz
FUNcube-1 02 Sep 23:06:36 23:10:46 65° 259° (W) 23:15:03 145.950 - 145.970 MHz USB
KITSAT 1 02 Sep 23:42:40 23:50:44 78° 119° (ESE) 23:58:51 435.175 FM
Sapphire 02 Sep 23:54:32 23:56:55 13° 33° (NNE) 23:59:18 437.095 MHz 1200 baud AX-25 AFSK
PCSat 03 Sep 00:22:46 00:26:40 20° 41° (NE) 00:30:34 145.825 MHz
Saudisat 1A 03 Sep 00:39:23 00:41:30 13° 326° (NW) 00:43:37 436.775 MHz
Sapphire 03 Sep 01:36:13 01:41:35 56° 55° (NE) 01:46:54 437.095 MHz 1200 baud AX-25 AFSK
KITSAT 1 03 Sep 01:39:57 01:46:57 31° 321° (NW) 01:54:00 435.175 FM
JAS-1B 03 Sep 02:03:54 02:04:48 10° 82° (E) 02:05:40 435.800 - 435.900 CW/SSB
PCSat 03 Sep 02:05:19 02:10:46 82° 241° (WSW) 02:16:11 145.825 MHz
Oscar 19 03 Sep 02:07:26 02:11:45 26° 94° (E) 02:16:02 437.125 CW, 437.150 USB
AO-Echo 03 Sep 02:09:48 02:11:11 11° 89° (E) 02:12:34 ?
SO-50 03 Sep 02:13:44 02:14:47 11° 107° (ESE) 02:15:51 436.795 FM
Oscar 10/S400 03 Sep 02:33:15 03:37:40 43° 221° (SW) 09:14:17 145.825 - 145.975 CW/USB, Beacon 145.810 USB
Oscar 16 03 Sep 02:42:24 02:47:32 56° 101° (E) 02:52:37 437.025 USB, Beacon 2401.1428
ITAMSAT 1 03 Sep 02:47:37 02:51:57 27° 95° (E) 02:56:17 435.822 SSB
Uribyol 2 03 Sep 02:56:25 03:01:08 34° 97° (E) 03:05:49 436.500 FM
TMSAT-1 03 Sep 03:15:42 03:19:04 17° 90° (E) 03:22:26 436.925 FM
AO-27 03 Sep 03:17:08 03:22:11 50° 100° (E) 03:27:13 436.795 MHz FM
Sapphire 03 Sep 03:20:29 03:24:35 22° 253° (WSW) 03:28:40 437.095 MHz 1200 baud AX-25 AFSK
KITSAT 1 03 Sep 03:41:25 03:45:30 14° 350° (N) 03:49:34 435.175 FM
OPAL 03 Sep 03:42:55 03:46:48 22° 60° (ENE) 03:50:44 ?
AO-Echo 03 Sep 03:45:49 03:50:31 77° 285° (WNW) 03:55:15 ?
Oscar 19 03 Sep 03:46:22 03:51:13 41° 291° (WNW) 03:56:03 437.125 CW, 437.150 USB
SO-50 03 Sep 03:50:07 03:54:35 86° 304° (NW) 03:59:12 436.795 FM
JAS-1B 03 Sep 03:50:15 03:56:55 82° 104° (ESE) 04:02:44 435.800 - 435.900 CW/SSB
PCSat 03 Sep 03:51:48 03:53:17 11° 259° (WSW) 03:54:45 145.825 MHz
Gurwin Techsat 1B 03 Sep 04:04:55 04:10:12 64° 102° (ESE) 04:15:28 435.225 FM
Oscar 16 03 Sep 04:22:42 04:26:28 21° 298° (WNW) 04:30:13 437.025 USB, Beacon 2401.1428
ITAMSAT 1 03 Sep 04:26:44 04:31:33 40° 292° (WNW) 04:36:22 435.822 SSB
AO-7 03 Sep 04:33:17 04:39:48 25° 93° (E) 04:46:16 29.400 - 29.500 MHz
Uribyol 2 03 Sep 04:35:58 04:40:32 32° 294° (WNW) 04:45:06 436.500 FM
Uosat F 03 Sep 04:40:19 04:43:48 19° 92° (E) 04:47:15 435.120 FM
TMSAT-1 03 Sep 04:54:12 04:59:27 64° 287° (WNW) 05:04:40 436.925 FM
AO-27 03 Sep 04:57:24 05:01:21 23° 297° (WNW) 05:05:19 436.795 MHz FM
OPAL 03 Sep 05:20:23 05:25:19 51° 258° (WSW) 05:30:21 ?
UOSAT-12 03 Sep 05:29:43 05:34:20 79° 123° (ESE) 05:39:03 437.025 FM, 437.400 FM
SO-50 03 Sep 05:33:07 05:35:53 16° 325° (NW) 05:38:41 436.795 FM
STRAND 1 03 Sep 05:35:10 05:36:45 11° 56° (ENE) 05:38:20 ?
KITSAT 1 03 Sep 05:39:49 05:44:55 17° 21° (NNE) 05:49:59 435.175 FM
JAS-1B 03 Sep 05:42:24 05:46:32 18° 307° (NW) 05:50:21 435.800 - 435.900 CW/SSB
Saudisat 1A 03 Sep 05:43:44 05:46:57 19° 40° (NE) 05:50:09 436.775 MHz
Gurwin Techsat 1B 03 Sep 05:46:03 05:49:40 19° 299° (WNW) 05:53:16 435.225 FM
Uosat F 03 Sep 06:18:02 06:22:54 54° 289° (WNW) 06:27:46 435.120 FM
AO-7 03 Sep 06:25:02 06:33:18 74° 292° (WNW) 06:41:31 29.400 - 29.500 MHz
Hamsat 03 Sep 06:37:15 06:41:01 28° 95° (E) 06:44:43 145.90 MHz
RS-15 03 Sep 06:50:09 06:59:49 37° 107° (ESE) 07:09:19 29.354 - 29.394 USB, Beacon 29.352 USB
STRAND 1 03 Sep 07:10:01 07:15:06 80° 74° (ENE) 07:20:13 ?
UOSAT-12 03 Sep 07:11:47 07:15:04 19° 322° (NW) 07:18:23 437.025 FM, 437.400 FM
JAS-2 03 Sep 07:17:43 07:23:01 66° 102° (ESE) 07:28:46 435.800 - 435.900 CW/SSB, 435.910 FM
Saudisat 1A 03 Sep 07:22:34 07:26:57 65° 239° (WSW) 07:31:18 436.775 MHz
KITSAT 1 03 Sep 07:34:54 07:42:40 47° 48° (NE) 07:50:21 435.175 FM
SO-67 03 Sep 08:06:47 08:10:02 37° 98° (E) 08:13:15 435.3500 MHz FM
Hamsat 03 Sep 08:13:13 08:16:54 28° 292° (WNW) 08:20:33 145.90 MHz
AO-7 03 Sep 08:19:30 08:24:44 19° 313° (NW) 08:29:59 29.400 - 29.500 MHz
STRAND 1 03 Sep 08:52:48 08:54:54 12° 271° (W) 08:57:00 ?
ISS 03 Sep 09:00:23 09:02:34 17° 133° (SE) 09:04:45 145.800 FM
RS-15 03 Sep 09:00:28 09:11:27 67° 310° (NW) 09:22:22 29.354 - 29.394 USB, Beacon 29.352 USB
JAS-2 03 Sep 09:04:16 09:07:42 18° 299° (WNW) 09:11:17 435.800 - 435.900 CW/SSB, 435.910 FM
KITSAT 1 03 Sep 09:30:29 09:38:04 46° 248° (WSW) 09:45:37 435.175 FM
SO-67 03 Sep 09:40:57 09:42:45 14° 294° (WNW) 09:44:33 435.3500 MHz FM
HO-68 03 Sep 09:45:27 09:52:00 37° 97° (E) 09:58:30 435.675 MHz FM
UKube-1 03 Sep 10:16:33 10:20:25 30° 97° (E) 10:24:15 145.840 MHz, 145.915 MHz
Oscar 11 03 Sep 10:18:54 10:22:22 23° 94° (E) 10:25:49 145.825 FM, Beacon 2401.500 USB
ISS 03 Sep 10:35:39 10:38:58 67° 330° (NNW) 10:42:17 145.800 FM
SO-50 03 Sep 10:40:56 10:44:27 20° 39° (NE) 10:47:59 436.795 FM
FUNcube-1 03 Sep 10:54:57 10:58:38 24° 94° (E) 11:02:20 145.950 - 145.970 MHz USB
RS-15 03 Sep 11:17:19 11:26:19 28° 339° (NNW) 11:35:25 29.354 - 29.394 USB, Beacon 29.352 USB
HO-68 03 Sep 11:33:03 11:39:47 46° 295° (WNW) 11:46:30 435.675 MHz FM
UKube-1 03 Sep 11:52:55 11:56:30 26° 293° (WNW) 12:00:05 145.840 MHz, 145.915 MHz
Oscar 11 03 Sep 11:54:40 11:58:38 34° 290° (WNW) 12:02:34 145.825 FM, Beacon 2401.500 USB
ISS 03 Sep 12:13:29 12:16:09 22° 349° (N) 12:18:49 145.800 FM
UOSAT-12 03 Sep 12:19:19 12:22:24 17° 36° (NE) 12:25:28 437.025 FM, 437.400 FM
SO-50 03 Sep 12:20:44 12:25:31 74° 238° (WSW) 12:30:21 436.795 FM
Oscar 16 03 Sep 12:24:41 12:26:58 13° 57° (ENE) 12:29:15 437.025 USB, Beacon 2401.1428
FUNcube-1 03 Sep 12:30:55 12:35:06 37° 290° (WNW) 12:39:19 145.950 - 145.970 MHz USB
MaSat-1 03 Sep 12:37:06 12:41:45 42° 109° (ESE) 12:46:36 437.345 MHz
JAS-1B 03 Sep 12:46:18 12:52:34 21° 55° (NE) 12:58:19 435.800 - 435.900 CW/SSB
AO-27 03 Sep 13:00:47 13:02:48 12° 57° (ENE) 13:04:50 436.795 MHz FM
AO-Echo 03 Sep 13:22:53 13:26:19 19° 63° (ENE) 13:29:41 ?
Oscar 19 03 Sep 13:25:10 13:30:00 42° 69° (ENE) 13:34:52 437.125 CW, 437.150 USB
RS-15 03 Sep 13:34:48 13:43:32 26° 15° (NNE) 13:52:24 29.354 - 29.394 USB, Beacon 29.352 USB
Gurwin Techsat 1B 03 Sep 13:49:58 13:53:07 16° 59° (ENE) 13:56:16 435.225 FM
ISS 03 Sep 13:51:05 13:53:41 21° 9° (N) 13:56:18 145.800 FM
UOSAT-12 03 Sep 13:58:29 14:03:15 89° 56° (ENE) 14:07:55 437.025 FM, 437.400 FM
Oscar 16 03 Sep 14:00:22 14:05:32 89° 75° (ENE) 14:10:46 437.025 USB, Beacon 2401.1428
ITAMSAT 1 03 Sep 14:06:32 14:11:25 45° 69° (ENE) 14:16:20 435.822 SSB
MaSat-1 03 Sep 14:14:30 14:18:54 29° 308° (NW) 14:23:24 437.345 MHz
Uribyol 2 03 Sep 14:15:17 14:20:18 57° 71° (ENE) 14:25:22 436.500 FM
JAS-1B 03 Sep 14:32:24 14:42:04 79° 72° (ENE) 14:50:32 435.800 - 435.900 CW/SSB
AO-27 03 Sep 14:36:20 14:41:31 84° 75° (ENE) 14:46:43 436.795 MHz FM
TMSAT-1 03 Sep 14:37:09 14:41:41 30° 66° (ENE) 14:46:14 436.925 FM
AO-Echo 03 Sep 14:59:51 15:04:43 54° 260° (W) 15:09:28 ?
Oscar 19 03 Sep 15:05:14 15:09:28 26° 266° (W) 15:13:46 437.125 CW, 437.150 USB
Gurwin Techsat 1B 03 Sep 15:27:09 15:32:26 76° 257° (WSW) 15:37:47 435.225 FM
ISS 03 Sep 15:27:38 15:30:56 57° 29° (NNE) 15:34:13 145.800 FM
AO-7 03 Sep 15:33:13 15:40:45 40° 59° (ENE) 15:48:16 29.400 - 29.500 MHz
UOSAT-12 03 Sep 15:41:17 15:42:39 11° 253° (WSW) 15:44:01 437.025 FM, 437.400 FM
Oscar 16 03 Sep 15:44:02 15:45:35 11° 272° (W) 15:47:09 437.025 USB, Beacon 2401.1428
ITAMSAT 1 03 Sep 15:47:01 15:51:07 24° 266° (W) 15:55:14 435.822 SSB
RS-15 03 Sep 15:48:10 15:59:01 56° 46° (NE) 16:10:12 29.354 - 29.394 USB, Beacon 29.352 USB
Uosat F 03 Sep 15:54:24 15:58:42 30° 66° (ENE) 16:03:01 435.120 FM
Uribyol 2 03 Sep 15:56:38 16:00:09 18° 268° (W) 16:03:41 436.500 FM
TMSAT-1 03 Sep 16:16:36 16:21:28 37° 263° (W) 16:26:23 436.925 FM
Sapphire 03 Sep 16:19:14 16:24:15 41° 112° (ESE) 16:29:18 437.095 MHz 1200 baud AX-25 AFSK
AO-27 03 Sep 16:19:44 16:21:41 12° 272° (W) 16:23:37 436.795 MHz FM
JAS-1B 03 Sep 16:25:27 16:33:04 26° 268° (W) 16:40:06 435.800 - 435.900 CW/SSB
